Orbital Elements at Epoch 2459200.5 (2020-Dec-17.0) TDB
Reference: JPL 18 (heliocentric ecliptic J2000)
Element | Value | Uncertainty (1-sigma) | Units |
e | .1707075479770129 | 4.0553e-08 | |
a | 2.345084831449856 | 1.0835e-08 | au |
q | 1.944761150074965 | 9.627e-08 | au |
i | 5.985354751881934 | 6.3607e-06 | deg |
node | 348.5551286175898 | 4.28e-05 | deg |
peri | 92.82320415573 | 4.7797e-05 | deg |
M | 97.82249920769061 | 1.8414e-05 | deg |
tp | 2458844.071423102193 (2019-Dec-26.57142310) | 6.7025e-05 | TDB |
period | 1311.705269467524 3.59 | 9.0907e-06 2.489e-08 | d yr |
n | .2744518973733628 | 1.9021e-09 | deg/d |
Q | 2.745408512824748 | 1.2685e-08 | au |
|
| | Orbit Determination Parameters
Additional Information
|